Regional Weather Roundup
Issued by NWS

Home | Current Version | Previous Version | Graphics & Text | Print | Product List | Glossary On
Versions: 1 2 3 4 5 6 7 8 9 10 11 12 13 14 15 16 17 18 19 20 21 22 23 24 25 26 27 28 29 30 31 32 33 34 35 36 37 38 39 40 41 42 43 44 45 46 47 48 49 50
155
ASUS43 KLOT 250303
RWRIL

ILLINOIS REGIONAL WEATHER ROUNDUP
NATIONAL WEATHER SERVICE CHICAGO/ROMEOVILLE IL
1000 PM CDT TUE APR 24 2018

NOTE: "FAIR" INDICATES FEW OR NO CLOUDS BELOW 12,000 FEET WITH NO
SIGNIFICANT WEATHER AND/OR OBSTRUCTIONS TO VISIBILITY.

* THESE STATIONS ARE NOT UNDER NWS QUALITY CONTROL. THEY ALSO MAY NOT
  REPORT WEATHER SUCH AS PRECIPITATION OR FOG.

ILZ001-002-007-009-015-016-024-250400-
NORTHWEST ILLINOIS

CITY           SKY/WX    TMP DP  RH WIND       PRES   REMARKS
MOLINE         FAIR      60  34  37 W3        30.00R
STERLING*      FAIR      56  33  42 N3        30.00R
SAVANNA*       FAIR      62  35  37 NW6       30.01R
$$

ILZ003-004-008-010-011-017-018-250400-
NORTH CENTRAL ILLINOIS

CITY           SKY/WX    TMP DP  RH WIND       PRES   REMARKS
ROCKFORD       FAIR      57  46  66 E6        30.02R
FREEPORT*      CLOUDY    55  31  40 CALM      30.02S
ROCHELLE*      FAIR      53  43  70 E7        30.01S
DE KALB*       FAIR      52  46  79 E6        30.02S
PERU*          FAIR      61  48  62 E8        30.01R
$$

ILZ005-006-012>014-019>023-250400-
NORTHEAST ILLINOIS

CITY           SKY/WX    TMP DP  RH WIND       PRES   REMARKS
CHICAGO-OHARE  FAIR      51  45  79 NE13      30.02R
CHICAGO-MIDWAY FAIR      52  47  83 N8        30.01R
AURORA         FAIR      53  45  74 NE5       30.00S
LANSING*       FAIR      47  46  97 CALM      30.01S
JOLIET*        FAIR      53  48  82 CALM      30.01S
WAUKEGAN       FAIR      47  45  93 NE9       30.02S
DUPAGE AIRPORT FAIR      52  48  86 NE8       30.01R
KANKAKEE*      FAIR      49  46  88 NE3       30.01S
WHEELING       FAIR      49  45  86 N7        30.05R
MORRIS*        FAIR      53  46  78 E3        30.00S
ROMEOVILLE*    FAIR      50  46  85 E6        30.01S
NORTHERLY ISL    N/A     45  42  89 MISG        N/A
$$

LMZ740>746-250400-
SOUTHERN LAKE MICHIGAN

STATION/POSITION SKY/WX   TEMP    WIND        PRES    VSBY  WAVE
                          AIR SEA DIR/SP/G                  HT/PER
                          (F)     (DEG/KT/KT) (MB)    (MI)  (FT/S)
HARRISON CRIB              43     340/ 10/ 11   N/A
BURNHAM HARBOR             45     330/  9       N/A
CALUMET HARBOR             43     320/  5/  8 1016.0R
BURNS HARBOR               43        CALM     1016.6F
MICHIGAN CITY              44     290/  4/  5   N/A
ST. JOSEPH                 43 44  340/  8/ 12 1016.7R         1/ 3
$$

ILZ025>027-034>036-040-047-049-050-058-095>099-250400-
WEST-CENTRAL ILLINOIS

CITY           SKY/WX    TMP DP  RH WIND       PRES   REMARKS
QUINCY         CLOUDY    60  29  30 NW6       30.02R
GALESBURG*     FAIR      58  35  42 CALM      30.02R
MACOMB*        PTCLDY    52  33  48 NW8       30.03S
JACKSONVILLE*  MOCLDY    56  33  42 NW6       30.00R
PITTSFIELD*    CLOUDY    61  33  35 NW5       30.03R
$$

ILZ028>032-037-038-041>044-048-051>054-059>061-250400-
CENTRAL ILLINOIS

CITY           SKY/WX    TMP DP  RH WIND       PRES   REMARKS
PONTIAC        FAIR      51  49  93 E6        30.01R
BLOOMINGTON    FAIR      54  49  83 E5        30.01R
DECATUR        FAIR      52  51  97 CALM      29.99R
PEORIA         FAIR      64  29  26 N5        29.99R
LACON*         FAIR      60  45  58 E8        29.99R
LINCOLN*       FAIR      56  51  86 CALM      29.99R
SPRINGFIELD    FAIR      59  43  55 CALM      29.99R
TAYLORVILLE    FAIR      56  52  86 S3        30.00R
$$

ILZ033-039-045-046-055>057-062-063-250400-
EAST-CENTRAL ILLINOIS

CITY           SKY/WX    TMP DP  RH WIND       PRES   REMARKS
CHAMPAIGN      FAIR      53  49  86 NE3       30.00R
DANVILLE*      FAIR      51  50  97 N6        29.97R
RANTOUL*       FAIR      55  52  90 CALM      30.00R
MATTOON        FAIR      53  51  93 NW3       29.98R
PARIS*         FAIR      55  51  86 CALM      29.99S
$$

ILZ079-100>102-250400-
SOUTHWEST ILLINOIS

CITY           SKY/WX    TMP DP  RH WIND       PRES   REMARKS
ALTON          CLEAR     55  45  67 CALM      29.98S
CAHOKIA*       CLEAR     57  50  77 S5        30.00R
SPARTA*        PTCLDY    55  54  99 CALM      30.02R
$$

ILZ064>066-069>071-074>076-080>082-084>086-088>090-092>094-250400-
SOUTH-CENTRAL ILLINOIS

CITY           SKY/WX    TMP DP  RH WIND       PRES   REMARKS
CARBONDALE     FAIR      53  51  93 CALM      30.01R
CAIRO*         FAIR      55  53  96 CALM      30.01F
EFFINGHAM*     FAIR      52  52 100 CALM      30.01S
MARION         FAIR      51  51  98 CALM      30.01F
MT. VERNON     FAIR      50  49  96 CALM      30.00S FOG
CENTRALIA*     CLEAR     53  51  95 CALM      30.00S
SALEM*         FAIR      55  51  88 CALM      30.00S
METROPOLIS*    FAIR      58  54  84 CALM      30.01S
$$

ILZ067-068-072-073-078-083-087-091-250400-
SOUTHEAST ILLINOIS

CITY           SKY/WX    TMP DP  RH WIND       PRES   REMARKS
LAWRENCEVILLE  CLOUDY    57  55  93 MISG      29.98S
FLORA*         FAIR      54  51  92 CALM      29.99S
FAIRFIELD*     FAIR      52  52 100 CALM      29.99S
HARRISBURG*    FAIR      53  52  99 CALM      30.01S
ROBINSON*      CLOUDY    55  54  97 CALM      29.99R
CARMI*         MOCLDY    55  54  96 W6        29.99R
$$

ABBREVIATIONS USED IN REMARKS
   TC - TEMPERATURE IN CELSIUS
  WCI - WIND CHILL INDEX
   HX - HEAT INDEX
  VSB - VISIBILITY
$$





USA.gov is the U.S. government's official web portal to all federal, state and local government web resources and services.